Time,TemperatureF,DewpointF,PressureIn,WindDirection,WindDirectionDegrees,WindSpeedMPH,WindSpeedGustMPH,Humidity,HourlyPrecipIn,Conditions,Clouds,dailyrainin,SoftwareType,DateUTC
2013-05-30 00:03:00,75.0,68.0,30.19,SE,137,7.0,12.0,79,0.00,,,0.00,,2013-05-30 04:03:00,
2013-05-30 00:13:00,75.0,68.0,30.19,SE,137,7.0,12.0,79,0.00,,,0.00,,2013-05-30 04:13:00,
2013-05-30 00:23:00,75.0,68.0,30.19,SE,137,5.0,11.0,79,0.00,,,0.00,,2013-05-30 04:23:00,
2013-05-30 00:33:00,75.0,68.0,30.19,SSE,153,5.0,10.0,79,0.00,,,0.00,,2013-05-30 04:33:00,
2013-05-30 00:42:00,75.0,68.0,30.19,SSE,153,5.0,10.0,79,0.00,,,0.00,,2013-05-30 04:42:00,
2013-05-30 00:53:00,75.0,68.0,30.19,SE,130,6.0,12.0,79,0.00,,,0.00,,2013-05-30 04:53:00,
2013-05-30 01:02:00,75.0,69.0,30.19,ESE,121,6.0,10.0,81,0.00,,,0.00,,2013-05-30 05:02:00,
2013-05-30 01:12:00,75.0,69.0,30.19,ESE,121,6.0,10.0,81,0.00,,,0.00,,2013-05-30 05:12:00,
2013-05-30 01:22:00,75.0,69.0,30.18,SE,128,5.0,10.0,81,0.00,,,0.00,,2013-05-30 05:22:00,
2013-05-30 01:32:00,75.0,69.0,30.18,SSE,154,3.0,9.0,82,0.00,,,0.00,,2013-05-30 05:32:00,
2013-05-30 01:42:00,75.0,69.0,30.18,SSE,154,3.0,9.0,82,0.00,,,0.00,,2013-05-30 05:42:00,
2013-05-30 01:52:00,75.0,69.0,30.19,South,174,3.0,7.0,82,0.00,,,0.00,,2013-05-30 05:52:00,
2013-05-30 02:01:00,74.0,68.0,30.19,SE,138,2.0,7.0,82,0.00,,,0.00,,2013-05-30 06:01:00,
2013-05-30 02:12:00,74.0,68.0,30.19,SE,138,2.0,7.0,82,0.00,,,0.00,,2013-05-30 06:12:00,
2013-05-30 02:22:00,75.0,69.0,30.19,South,187,3.0,7.0,81,0.00,,,0.00,,2013-05-30 06:22:00,
2013-05-30 02:32:00,75.0,69.0,30.18,SSE,147,3.0,7.0,81,0.00,,,0.00,,2013-05-30 06:32:00,
2013-05-30 02:42:00,75.0,69.0,30.18,SSE,147,3.0,7.0,81,0.00,,,0.00,,2013-05-30 06:42:00,
2013-05-30 02:52:00,75.0,69.0,30.18,SSW,194,0.0,6.0,81,0.00,,,0.00,,2013-05-30 06:52:00,
2013-05-30 03:01:00,74.0,68.0,30.18,SE,146,0.0,2.0,82,0.00,,,0.00,,2013-05-30 07:01:00,
2013-05-30 03:12:00,74.0,68.0,30.18,SE,146,0.0,2.0,82,0.00,,,0.00,,2013-05-30 07:12:00,
2013-05-30 03:22:00,73.0,68.0,30.18,SE,146,0.0,1.0,83,0.00,,,0.00,,2013-05-30 07:22:00,
2013-05-30 03:32:00,72.0,67.0,30.18,SE,146,0.0,1.0,85,0.00,,,0.00,,2013-05-30 07:32:00,
2013-05-30 03:42:00,72.0,67.0,30.18,SE,146,0.0,1.0,85,0.00,,,0.00,,2013-05-30 07:42:00,
2013-05-30 03:52:00,71.0,67.0,30.18,SE,146,0.0,2.0,86,0.00,,,0.00,,2013-05-30 07:52:00,
2013-05-30 04:02:00,70.0,66.0,30.18,SE,146,0.0,1.0,88,0.00,,,0.00,,2013-05-30 08:02:00,
2013-05-30 04:11:00,70.0,66.0,30.18,SE,146,0.0,1.0,88,0.00,,,0.00,,2013-05-30 08:11:00,
2013-05-30 04:22:00,70.0,67.0,30.18,SE,146,0.0,1.0,89,0.00,,,0.00,,2013-05-30 08:22:00,
2013-05-30 04:32:00,69.0,66.0,30.18,SE,146,0.0,1.0,90,0.00,,,0.00,,2013-05-30 08:32:00,
2013-05-30 04:42:00,69.0,66.0,30.18,SE,146,0.0,1.0,90,0.00,,,0.00,,2013-05-30 08:42:00,
2013-05-30 04:52:00,69.0,66.0,30.18,SE,146,0.0,0.0,90,0.00,,,0.00,,2013-05-30 08:52:00,
2013-05-30 05:01:00,69.0,66.0,30.18,SE,146,0.0,0.0,91,0.00,,,0.00,,2013-05-30 09:01:00,
2013-05-30 05:11:00,69.0,66.0,30.18,SE,146,0.0,0.0,91,0.00,,,0.00,,2013-05-30 09:11:00,
2013-05-30 05:21:00,69.0,66.0,30.18,SE,146,0.0,0.0,91,0.00,,,0.00,,2013-05-30 09:21:00,
2013-05-30 05:33:00,69.0,66.0,30.19,SE,146,0.0,1.0,91,0.00,,,0.00,,2013-05-30 09:33:00,
2013-05-30 05:43:00,69.0,66.0,30.19,SE,146,0.0,1.0,91,0.00,,,0.00,,2013-05-30 09:43:00,
2013-05-30 05:53:00,68.0,66.0,30.19,SE,146,0.0,0.0,92,0.00,,,0.00,,2013-05-30 09:53:00,
2013-05-30 06:03:00,69.0,67.0,30.19,SE,146,0.0,1.0,92,0.00,,,0.00,,2013-05-30 10:03:00,
2013-05-30 06:13:00,69.0,67.0,30.19,SE,146,0.0,1.0,92,0.00,,,0.00,,2013-05-30 10:13:00,
2013-05-30 06:23:00,68.0,66.0,30.20,SE,146,0.0,0.0,92,0.00,,,0.00,,2013-05-30 10:23:00,
2013-05-30 06:33:00,68.0,66.0,30.21,SE,146,0.0,1.0,93,0.00,,,0.00,,2013-05-30 10:33:00,
2013-05-30 06:42:00,68.0,66.0,30.21,SE,146,0.0,1.0,93,0.00,,,0.00,,2013-05-30 10:42:00,
2013-05-30 06:52:00,68.0,66.0,30.21,SE,146,0.0,0.0,93,0.00,,,0.00,,2013-05-30 10:52:00,
2013-05-30 07:03:00,68.0,66.0,30.22,SE,146,0.0,0.0,93,0.00,,,0.00,,2013-05-30 11:03:00,
2013-05-30 07:12:00,68.0,66.0,30.22,SE,146,0.0,0.0,93,0.00,,,0.00,,2013-05-30 11:12:00,
2013-05-30 07:22:00,69.0,67.0,30.22,SE,146,0.0,0.0,94,0.00,,,0.00,,2013-05-30 11:22:00,
2013-05-30 07:32:00,70.0,68.0,30.22,SE,146,0.0,0.0,94,0.00,,,0.00,,2013-05-30 11:32:00,
2013-05-30 07:42:00,70.0,68.0,30.22,SE,146,0.0,0.0,94,0.00,,,0.00,,2013-05-30 11:42:00,
2013-05-30 07:52:00,71.0,69.0,30.22,NNE,30,0.0,2.0,95,0.00,,,0.00,,2013-05-30 11:52:00,
2013-05-30 08:02:00,72.0,70.0,30.22,NNE,32,0.0,3.0,94,0.00,,,0.00,,2013-05-30 12:02:00,
2013-05-30 08:11:00,72.0,70.0,30.22,NNE,32,0.0,3.0,94,0.00,,,0.00,,2013-05-30 12:11:00,
2013-05-30 08:22:00,74.0,72.0,30.22,NE,34,1.0,4.0,92,0.00,,,0.00,,2013-05-30 12:22:00,
2013-05-30 08:32:00,75.0,72.0,30.23,East,81,0.0,2.0,90,0.00,,,0.00,,2013-05-30 12:32:00,
2013-05-30 08:42:00,75.0,72.0,30.23,East,81,0.0,2.0,90,0.00,,,0.00,,2013-05-30 12:42:00,
2013-05-30 08:52:00,77.0,73.0,30.24,East,86,0.0,3.0,88,0.00,,,0.00,,2013-05-30 12:52:00,
2013-05-30 09:01:00,77.0,72.0,30.24,East,99,0.0,4.0,86,0.00,,,0.00,,2013-05-30 13:01:00,
2013-05-30 09:11:00,77.0,72.0,30.24,East,99,0.0,4.0,86,0.00,,,0.00,,2013-05-30 13:11:00,
2013-05-30 09:22:00,78.0,73.0,30.24,ENE,70,0.0,3.0,85,0.00,,,0.00,,2013-05-30 13:22:00,
2013-05-30 09:32:00,78.0,73.0,30.24,NE,45,0.0,3.0,84,0.00,,,0.00,,2013-05-30 13:32:00,
2013-05-30 09:42:00,78.0,73.0,30.24,NE,45,0.0,3.0,84,0.00,,,0.00,,2013-05-30 13:42:00,
2013-05-30 09:52:00,78.0,72.0,30.25,ENE,71,0.0,2.0,83,0.00,,,0.00,,2013-05-30 13:52:00,
2013-05-30 10:02:00,78.0,72.0,30.24,East,80,0.0,3.0,83,0.00,,,0.00,,2013-05-30 14:02:00,
2013-05-30 10:11:00,78.0,72.0,30.24,East,80,0.0,3.0,83,0.00,,,0.00,,2013-05-30 14:11:00,
2013-05-30 10:22:00,79.0,73.0,30.24,ENE,67,0.0,3.0,81,0.00,,,0.00,,2013-05-30 14:22:00,
2013-05-30 10:32:00,80.0,72.0,30.24,SSW,205,0.0,3.0,78,0.00,,,0.00,,2013-05-30 14:32:00,
2013-05-30 10:42:00,80.0,72.0,30.24,SSW,205,0.0,3.0,78,0.00,,,0.00,,2013-05-30 14:42:00,
2013-05-30 10:52:00,80.0,73.0,30.24,SE,126,0.0,3.0,79,0.00,,,0.00,,2013-05-30 14:52:00,
2013-05-30 11:01:00,80.0,73.0,30.24,SSE,154,1.0,4.0,79,0.00,,,0.00,,2013-05-30 15:01:00,
2013-05-30 11:11:00,80.0,73.0,30.24,SSE,154,1.0,4.0,79,0.00,,,0.00,,2013-05-30 15:11:00,
2013-05-30 11:22:00,80.0,73.0,30.24,ESE,107,1.0,5.0,79,0.00,,,0.00,,2013-05-30 15:22:00,
2013-05-30 11:33:00,81.0,74.0,30.24,East,87,1.0,5.0,79,0.00,,,0.00,,2013-05-30 15:33:00,
2013-05-30 11:42:00,81.0,73.0,30.24,ENE,78,0.0,3.0,78,0.00,,,0.00,,2013-05-30 15:42:00,
2013-05-30 11:52:00,81.0,73.0,30.24,ENE,78,0.0,3.0,78,0.00,,,0.00,,2013-05-30 15:52:00,
2013-05-30 12:03:00,81.0,73.0,30.24,East,101,0.0,3.0,78,0.00,,,0.00,,2013-05-30 16:03:00,
2013-05-30 12:12:00,81.0,73.0,30.24,East,101,0.0,3.0,78,0.00,,,0.00,,2013-05-30 16:12:00,
2013-05-30 12:23:00,81.0,73.0,30.24,SE,136,1.0,3.0,77,0.00,,,0.00,,2013-05-30 16:23:00,
2013-05-30 12:33:00,82.0,73.0,30.24,SSE,153,1.0,4.0,75,0.00,,,0.00,,2013-05-30 16:33:00,
2013-05-30 12:42:00,82.0,73.0,30.24,ESE,115,1.0,5.0,74,0.00,,,0.00,,2013-05-30 16:42:00,
2013-05-30 12:52:00,82.0,73.0,30.24,ESE,115,1.0,5.0,74,0.00,,,0.00,,2013-05-30 16:52:00,
2013-05-30 13:02:00,82.0,74.0,30.23,SE,126,0.0,3.0,76,0.00,,,0.00,,2013-05-30 17:02:00,
2013-05-30 13:12:00,82.0,74.0,30.23,SE,126,0.0,3.0,76,0.00,,,0.00,,2013-05-30 17:12:00,
2013-05-30 13:22:00,83.0,74.0,30.23,South,186,0.0,7.0,75,0.00,,,0.00,,2013-05-30 17:22:00,
2013-05-30 13:32:00,81.0,73.0,30.23,NNW,339,2.0,6.0,78,0.00,,,0.00,,2013-05-30 17:32:00,
2013-05-30 13:42:00,81.0,73.0,30.23,NNW,339,2.0,6.0,78,0.00,,,0.00,,2013-05-30 17:42:00,
2013-05-30 13:52:00,80.0,73.0,30.22,ESE,118,2.0,8.0,80,0.00,,,0.00,,2013-05-30 17:52:00,
2013-05-30 14:02:00,80.0,74.0,30.22,ESE,111,1.0,5.0,81,0.00,,,0.00,,2013-05-30 18:02:00,
2013-05-30 14:11:00,80.0,74.0,30.22,ESE,111,1.0,5.0,81,0.00,,,0.00,,2013-05-30 18:11:00,
2013-05-30 14:22:00,82.0,75.0,30.22,ESE,117,1.0,6.0,80,0.00,,,0.00,,2013-05-30 18:22:00,
2013-05-30 14:32:00,82.0,74.0,30.21,ESE,120,1.0,8.0,78,0.00,,,0.00,,2013-05-30 18:32:00,
2013-05-30 14:43:00,82.0,74.0,30.21,ESE,120,1.0,8.0,78,0.00,,,0.00,,2013-05-30 18:43:00,
2013-05-30 14:51:00,81.0,74.0,30.21,SE,131,3.0,7.0,79,0.00,,,0.00,,2013-05-30 18:51:00,
2013-05-30 15:02:00,80.0,74.0,30.20,ESE,103,2.0,7.0,81,0.00,,,0.00,,2013-05-30 19:02:00,
2013-05-30 15:12:00,80.0,74.0,30.20,ESE,103,2.0,7.0,81,0.00,,,0.00,,2013-05-30 19:12:00,
2013-05-30 15:23:00,80.0,73.0,30.19,East,80,2.0,7.0,80,0.00,,,0.00,,2013-05-30 19:23:00,
2013-05-30 15:32:00,81.0,74.0,30.19,ESE,107,2.0,7.0,79,0.00,,,0.00,,2013-05-30 19:32:00,
2013-05-30 15:42:00,81.0,74.0,30.19,ESE,107,2.0,7.0,79,0.00,,,0.00,,2013-05-30 19:42:00,
2013-05-30 15:52:00,80.0,72.0,30.18,ESE,117,3.0,8.0,77,0.00,,,0.00,,2013-05-30 19:52:00,
2013-05-30 16:02:00,81.0,73.0,30.18,ESE,107,3.0,7.0,76,0.00,,,0.00,,2013-05-30 20:02:00,
2013-05-30 16:11:00,81.0,73.0,30.18,ESE,107,3.0,7.0,76,0.00,,,0.00,,2013-05-30 20:11:00,
2013-05-30 16:22:00,81.0,72.0,30.18,SE,128,2.0,5.0,75,0.00,,,0.00,,2013-05-30 20:22:00,
2013-05-30 16:33:00,81.0,72.0,30.18,SE,128,2.0,5.0,75,0.00,,,0.00,,2013-05-30 20:33:00,
2013-05-30 16:42:00,81.0,72.0,30.18,SE,128,2.0,5.0,75,0.00,,,0.00,,2013-05-30 20:42:00,
2013-05-30 16:52:00,81.0,72.0,30.18,ESE,110,3.0,6.0,74,0.00,,,0.00,,2013-05-30 20:52:00,
2013-05-30 17:01:00,81.0,72.0,30.17,SE,133,3.0,7.0,73,0.00,,,0.00,,2013-05-30 21:01:00,
2013-05-30 17:11:00,81.0,72.0,30.18,ESE,119,2.0,6.0,73,0.00,,,0.00,,2013-05-30 21:11:00,
2013-05-30 17:22:00,81.0,72.0,30.18,ESE,119,2.0,6.0,73,0.00,,,0.00,,2013-05-30 21:22:00,
2013-05-30 17:33:00,81.0,72.0,30.17,East,101,1.0,5.0,74,0.00,,,0.00,,2013-05-30 21:33:00,
2013-05-30 17:43:00,81.0,72.0,30.17,East,101,1.0,5.0,74,0.00,,,0.00,,2013-05-30 21:43:00,
2013-05-30 17:53:00,81.0,72.0,30.18,SE,130,2.0,5.0,73,0.00,,,0.00,,2013-05-30 21:53:00,
2013-05-30 18:02:00,81.0,72.0,30.18,SE,136,2.0,4.0,74,0.00,,,0.00,,2013-05-30 22:02:00,
2013-05-30 18:12:00,81.0,72.0,30.18,SE,136,2.0,4.0,74,0.00,,,0.00,,2013-05-30 22:12:00,
2013-05-30 18:23:00,81.0,72.0,30.17,ESE,112,2.0,5.0,74,0.00,,,0.00,,2013-05-30 22:23:00,
2013-05-30 18:33:00,80.0,71.0,30.17,SE,142,2.0,5.0,74,0.00,,,0.00,,2013-05-30 22:33:00,
2013-05-30 18:42:00,80.0,71.0,30.17,SE,141,3.0,6.0,73,0.00,,,0.00,,2013-05-30 22:42:00,
2013-05-30 18:52:00,80.0,71.0,30.17,SE,141,3.0,6.0,73,0.00,,,0.00,,2013-05-30 22:52:00,
2013-05-30 19:02:00,80.0,71.0,30.17,ESE,102,2.0,6.0,75,0.00,,,0.00,,2013-05-30 23:02:00,
2013-05-30 19:11:00,80.0,71.0,30.17,ESE,102,2.0,6.0,75,0.00,,,0.00,,2013-05-30 23:11:00,
2013-05-30 19:22:00,80.0,72.0,30.17,SE,125,2.0,7.0,76,0.00,,,0.00,,2013-05-30 23:22:00,
2013-05-30 19:32:00,79.0,71.0,30.18,SSE,150,3.0,8.0,76,0.00,,,0.00,,2013-05-30 23:32:00,
2013-05-30 19:41:00,79.0,71.0,30.18,SSE,150,3.0,8.0,76,0.00,,,0.00,,2013-05-30 23:41:00,
2013-05-30 19:52:00,79.0,72.0,30.18,SE,132,4.0,7.0,78,0.00,,,0.00,,2013-05-30 23:52:00,
2013-05-30 20:01:00,78.0,71.0,30.18,SE,134,4.0,6.0,79,0.00,,,0.00,,2013-05-31 00:01:00,
2013-05-30 20:11:00,78.0,71.0,30.18,SE,134,4.0,6.0,79,0.00,,,0.00,,2013-05-31 00:11:00,
2013-05-30 20:22:00,78.0,71.0,30.18,ESE,114,2.0,6.0,80,0.00,,,0.00,,2013-05-31 00:22:00,
2013-05-30 20:32:00,77.0,70.0,30.18,ESE,118,3.0,6.0,80,0.00,,,0.00,,2013-05-31 00:32:00,
2013-05-30 20:42:00,77.0,71.0,30.18,ESE,116,2.0,8.0,81,0.00,,,0.00,,2013-05-31 00:42:00,
2013-05-30 20:52:00,77.0,71.0,30.18,ESE,116,2.0,8.0,81,0.00,,,0.00,,2013-05-31 00:52:00,
2013-05-30 21:01:00,77.0,71.0,30.17,ESE,120,2.0,6.0,82,0.00,,,0.00,,2013-05-31 01:01:00,
2013-05-30 21:12:00,77.0,71.0,30.17,ESE,120,2.0,6.0,82,0.00,,,0.00,,2013-05-31 01:12:00,
2013-05-30 21:21:00,77.0,71.0,30.17,SE,126,3.0,6.0,82,0.00,,,0.00,,2013-05-31 01:21:00,
2013-05-30 21:32:00,77.0,71.0,30.17,SE,124,2.0,6.0,83,0.00,,,0.00,,2013-05-31 01:32:00,
2013-05-30 21:42:00,77.0,72.0,30.18,East,88,1.0,7.0,85,0.00,,,0.00,,2013-05-31 01:42:00,
2013-05-30 21:52:00,77.0,72.0,30.18,East,88,1.0,7.0,85,0.00,,,0.00,,2013-05-31 01:52:00,
2013-05-30 22:02:00,77.0,72.0,30.18,ESE,118,2.0,7.0,86,0.00,,,0.00,,2013-05-31 02:02:00,
2013-05-30 22:11:00,77.0,72.0,30.18,ESE,118,2.0,7.0,86,0.00,,,0.00,,2013-05-31 02:11:00,
2013-05-30 22:22:00,77.0,72.0,30.19,ESE,113,4.0,9.0,86,0.00,,,0.00,,2013-05-31 02:22:00,
2013-05-30 22:32:00,77.0,73.0,30.19,East,84,3.0,12.0,87,0.00,,,0.00,,2013-05-31 02:32:00,
2013-05-30 22:42:00,77.0,73.0,30.19,East,84,3.0,12.0,87,0.00,,,0.00,,2013-05-31 02:42:00,
2013-05-30 22:51:00,76.0,72.0,30.19,SE,131,4.0,9.0,87,0.00,,,0.00,,2013-05-31 02:51:00,
2013-05-30 23:01:00,76.0,72.0,30.19,ESE,121,4.0,8.0,86,0.00,,,0.00,,2013-05-31 03:01:00,
2013-05-30 23:11:00,76.0,72.0,30.19,ESE,121,4.0,8.0,86,0.00,,,0.00,,2013-05-31 03:11:00,
2013-05-30 23:21:00,76.0,71.0,30.18,ESE,123,4.0,9.0,85,0.00,,,0.00,,2013-05-31 03:21:00,
2013-05-30 23:33:00,76.0,71.0,30.19,ESE,123,3.0,8.0,85,0.00,,,0.00,,2013-05-31 03:33:00,
2013-05-30 23:43:00,76.0,71.0,30.19,ESE,123,3.0,8.0,85,0.00,,,0.00,,2013-05-31 03:43:00,
2013-05-30 23:53:00,76.0,72.0,30.19,SE,138,3.0,8.0,88,0.00,,,0.00,,2013-05-31 03:53:00,